Home   Weather   Liberia   Past weeks
Flag for Costa Rica

Past Weather in Liberia, Costa Rica — Yesterday and Last 2 Weeks

Now
79 °F

Clear.


Feels Like: 82 °F
Forecast: 89 / 75 °F
Wind: 9 mph from East

Location: Liberia/Tomas Guard

Current Time: Jul 17, 2019 at 1:19:29 am

Latest Report: Jul 17, 2019 at 12:00 am


Visibility: 10 mi

Pressure: 29.87 "Hg

Humidity: 79%

Dew Point: 72 °F

Location of LiberiaLocation

Past Weather in Liberia — Graph

°F

Liberia Temperature Yesterday

Maximum temperature yesterday: 88 °F (at 11:00 am)
Minimum temperature yesterday: 75 °F (at 12:00 am)
Average temperature yesterday: 82 °F

High & Low Weather Summary for the Past Weeks

 TemperatureHumidityPressure
High93 °F (Jul 7, 2:00 pm)100% (Jul 8, 10:00 pm)29.96 "Hg (Jul 8, 10:00 pm)
Low72 °F (Jul 9, 6:00 am)49% (Jul 4, 12:00 pm)29.74 "Hg (Jul 4, 4:00 pm)
Average82 °F73%29.84 "Hg
* Reported Jul 2 12:00 am — Jul 17 12:00 am, Liberia. Weather by CustomWeather, © 2019

Note: Actual official high and low records may vary slightly from our data, if they occured in-between our weather recording intervals... More about our weather records

Advertising

Liberia Weather History for the Previous 24 Hours

Scroll right to see more
 ConditionsComfort  
Time TempWeatherWind HumidityBarometerVisibility
12:00 am
Wed, Jul 17
79 °FClear.9 mph79%29.87 "Hg10 mi
11:00 pm
Tue, Jul 16
81 °FPassing clouds.6 mph74%29.89 "HgN/A
10:00 pm79 °FClear.6 mph79%29.89 "Hg10 mi
9:00 pm81 °FPassing clouds.7 mph74%29.87 "HgN/A
8:00 pm81 °FClear.9 mph74%29.87 "Hg10 mi
7:00 pm81 °FClear.2 mph79%29.85 "Hg10 mi
6:00 pm82 °FSunny.3 mph74%29.83 "Hg10 mi
5:00 pm84 °FSunny.2 mph70%29.81 "Hg10 mi
4:00 pm84 °FPartly sunny.6 mph70%29.81 "HgN/A
3:00 pm86 °FPartly sunny.7 mph62%29.82 "HgN/A
2:00 pm86 °FPartly sunny.8 mph62%29.83 "HgN/A
1:00 pm86 °FPartly sunny.8 mph66%29.85 "HgN/A
12:00 pm88 °FPartly sunny.12 mph62%29.86 "HgN/A
11:00 am88 °FScattered clouds.10 mph66%29.86 "HgN/A
10:00 am84 °FScattered clouds.7 mph79%29.88 "HgN/A
9:00 am82 °FScattered clouds.7 mph84%29.88 "HgN/A
8:00 am81 °FScattered clouds.5 mph89%29.87 "HgN/A
7:00 am79 °FScattered clouds.7 mph89%29.85 "HgN/A
6:00 am75 °FScattered clouds.2 mph94%29.83 "HgN/A
Weather by CustomWeather, © 2019

See weather overview